Location: Newark
(22.3000°N, 114.2000°E)
Time: 05:16:14
(UTC+00:00)

LightSail 2 - Visible Passes

Search period start: 17 October 2019 00:00
Search period end: 27 October 2019 00:00
Orbit: 707 x 722 km, 24.0° (Epoch: 16 October)

Date Brightness Start Highest point End Pass type
(mag) Time Alt. Az. Time Alt. Az. Time Alt. Az.
17 Oct 5.3 10:22:18 10° W 10:27:28 73° N 10:32:26 11° E visible
17 Oct 6.2 12:07:57 10° W 12:11:26 43° W 12:11:26 43° W visible
18 Oct 5.1 11:10:22 10° W 11:15:34 84° N 11:17:27 40° E visible
18 Oct 8.1 12:56:05 10° W 12:56:27 12° W 12:56:27 12° W visible
19 Oct 5.2 10:12:46 10° W 10:17:56 77° N 10:23:08 10° E visible
19 Oct 5.8 11:58:25 10° W 12:02:30 51° WSW 12:02:30 51° WSW visible
20 Oct 5.2 11:00:47 10° W 11:05:57 77° SSW 11:08:36 29° ESE visible
20 Oct 7.9 12:46:47 10° W 12:47:37 14° WSW 12:47:37 14° WSW visible
21 Oct 6.0 11:48:57 10° W 11:53:45 41° SSW 11:53:45 41° SSW visible
22 Oct 5.7 10:51:13 10° W 10:56:14 54° SSW 10:59:57 18° SE visible
22 Oct 7.8 12:37:53 10° WSW 12:38:59 14° WSW 12:38:59 14° WSW visible
23 Oct 6.7 11:39:43 10° W 11:43:59 26° SSW 11:45:15 23° S visible
24 Oct 6.5 10:41:46 10° W 10:46:26 35° SSW 10:51:06 10° SE visible
24 Oct 8.0 12:30:29 10° SW 12:30:38 10° SW 12:30:38 10° SW visible
25 Oct 7.6 11:31:05 10° WSW 11:34:05 16° SSW 11:37:05 10° S visible
26 Oct 7.3 10:32:39 10° WSW 10:36:32 21° SSW 10:40:25 10° SSE visible
